Date,TemperatureHighF,TemperatureAvgF,TemperatureLowF,DewpointHighF,DewpointAvgF,DewpointLowF,HumidityHigh,HumidityAvg,HumidityLow,PressureMaxIn,PressureMinIn,WindSpeedMaxMPH,WindSpeedAvgMPH,GustSpeedMaxMPH,PrecipitationSumIn
2013-3-1,66.8,53.7,45.6,29.4,24.7,12.9,50,33,13,30.25,30.08,11,0,18,0.00
2013-3-2,65.2,49.2,34.9,30.6,27.7,24.1,74,46,24,30.40,30.23,10,2,20,0.00
2013-3-3,77.9,53.7,31.0,43.3,32.9,24.8,78,51,21,30.25,29.91,7,1,12,0.00
2013-3-4,90.4,65.4,45.4,53.6,46.3,41.5,93,56,22,29.92,29.65,6,1,13,0.00
2013-3-5,69.0,56.8,44.2,55.5,28.6,12.7,92,41,13,30.31,29.73,12,3,20,0.00
2013-3-6,65.3,48.7,33.9,25.9,20.3,15.4,56,35,15,30.42,30.19,6,1,9,0.00
2013-3-7,76.4,55.8,36.2,54.6,43.5,24.9,82,64,40,30.22,30.05,4,0,8,0.00
2013-3-8,66.8,62.6,59.7,64.3,59.0,53.3,95,88,77,30.09,29.94,3,0,8,0.04
2013-3-9,73.3,66.1,62.1,68.0,63.1,59.2,96,90,78,29.97,29.60,4,0,12,0.09
2013-3-10,67.0,60.1,48.1,63.5,43.0,32.1,94,58,30,30.09,29.58,11,2,18,0.56
2013-3-11,69.8,51.3,37.1,35.1,30.5,21.3,83,51,20,30.17,29.96,9,2,16,0.00
2013-3-12,83.4,55.8,33.6,41.2,34.3,29.4,87,53,15,30.19,30.03,5,1,13,0.00
2013-3-13,79.3,59.1,38.9,44.4,39.4,35.4,92,54,23,30.39,30.19,4,0,7,0.00
2013-3-14,82.5,64.5,41.2,55.3,44.3,35.8,93,54,26,30.35,30.17,6,0,12,0.00
2013-3-15,80.7,80.7,80.7,45.5,45.5,45.5,29,29,29,30.17,30.17,0,0,0,0.00
2013-3-16,88.5,76.7,53.4,61.8,53.8,45.5,95,50,29,30.17,29.68,6,1,12,0.00
2013-3-17,89.2,73.3,65.4,64.9,61.6,58.3,87,70,38,29.77,29.58,5,1,12,0.00
2013-3-18,95.0,75.3,62.3,66.6,53.6,31.5,94,58,12,29.87,29.65,9,1,16,0.00
2013-3-19,84.0,68.4,52.1,65.8,55.8,45.1,80,65,50,29.93,29.76,5,0,12,0.00
2013-3-20,73.7,62.9,51.7,58.1,47.7,33.1,86,61,26,30.17,29.90,8,2,17,0.00
2013-3-21,76.6,63.3,48.5,61.3,52.6,40.1,85,69,54,29.98,29.57,7,1,14,0.00
2013-3-22,89.3,73.3,62.7,67.1,63.2,51.6,95,74,40,29.67,29.55,5,1,13,0.00
2013-3-23,84.7,65.5,53.8,63.5,55.2,49.1,90,71,47,29.73,29.52,4,0,9,0.00
2013-3-24,64.6,54.3,44.7,58.7,33.0,20.3,92,49,21,30.12,29.64,11,3,17,0.00
2013-3-25,63.1,48.2,37.1,27.2,21.4,12.1,65,38,15,30.35,30.12,7,1,14,0.00
2013-3-26,70.8,47.7,32.3,26.0,23.3,17.0,69,43,14,30.47,30.25,4,0,6,0.00
2013-3-27,69.1,52.7,32.4,49.9,38.1,24.7,80,59,41,30.30,30.12,5,0,12,0.00
2013-3-28,71.9,63.9,56.6,59.4,55.6,49.8,87,75,64,30.16,30.06,4,0,12,0.00
2013-3-29,80.0,68.2,58.5,60.8,57.6,55.6,95,71,45,30.12,29.98,5,0,12,0.00
2013-3-30,86.5,72.6,64.6,64.5,62.0,59.7,89,72,44,30.06,29.82,5,0,10,0.00
2013-3-31,87.0,71.2,66.1,66.9,64.5,62.8,90,81,48,29.89,29.79,6,0,12,0.10